FW7196 Weather Reports


time (UTC)temp
C
wind
direction
speed
KPH
gust
KPH
rain 1hr
cm
rain 24hr
cm
rain mn
cm
humidity
%
barometer
mb
20260905093044 11 0 0.0 0.0 0.00 0.00 0.00 95 1010.3
20260905091541 11 0 0.0 0.0 0.00 0.00 0.00 95 1010.3
20260905090049 11 118 0.0 3.2 0.00 0.00 0.00 95 1010.2
20260905084600 12 0 0.0 0.0 0.00 0.00 0.00 95 1010.3
20260905083041 12 0 0.0 0.0 0.00 0.00 0.00 95 1010.2
20260905081544 12 0 0.0 0.0 0.00 0.00 0.00 95 1010.2
20260905080041 12 0 0.0 0.0 0.00 0.00 0.00 95 1010.2
20260905074544 12 0 0.0 0.0 0.00 0.00 0.00 95 1010.1
20260905073043 12 0 0.0 0.0 0.00 0.00 0.00 94 1010.3
20260905071541 12 0 0.0 0.0 0.00 0.00 0.00 95 1010.4
20260905070043 12 0 0.0 0.0 0.00 0.00 0.00 95 1010.4
20260905064544 13 0 0.0 0.0 0.00 0.00 0.00 94 1010.7
20260905063049 13 0 0.0 0.0 0.00 0.00 0.00 94 1010.7
20260905061541 13 0 0.0 0.0 0.00 0.00 0.00 94 1010.7
20260905060044 13 0 0.0 1.6 0.00 0.00 0.00 94 1010.7
20260905054546 13 0 0.0 0.0 0.00 0.00 0.00 94 1010.6
20260905053050 13 0 0.0 0.0 0.00 0.00 0.00 93 1010.6
20260905051542 13 0 0.0 0.0 0.00 0.00 0.00 93 1010.6
20260905050043 14 0 0.0 3.2 0.00 0.00 0.00 93 1010.7
20260905044548 14 0 0.0 0.0 0.00 0.00 0.00 93 1010.8
20260905043047 14 0 0.0 0.0 0.00 0.00 0.00 92 1010.9
20260905041542 15 0 0.0 0.0 0.00 0.00 0.00 92 1010.8
20260905040048 15 0 0.0 0.0 0.00 0.00 0.00 91 1010.9
20260905034547 15 0 0.0 0.0 0.00 0.00 0.00 90 1010.9
20260905033042 16 0 0.0 0.0 0.00 0.00 0.00 90 1010.9
20260905031542 16 0 0.0 0.0 0.00 0.00 0.00 89 1011.0
20260905030043 16 0 0.0 0.0 0.00 0.00 0.00 88 1010.9
20260905024606 16 0 0.0 0.0 0.00 0.00 0.00 87 1011.1
20260905023045 17 0 0.0 0.0 0.00 0.00 0.00 86 1011.2
20260905021543 17 0 0.0 0.0 0.00 0.00 0.00 85 1011.3
20260905020051 17 0 0.0 1.6 0.00 0.00 0.00 85 1011.4
20260905014545 17 0 0.0 0.0 0.00 0.00 0.00 87 1011.6
20260905013051 17 0 0.0 1.6 0.00 0.00 0.00 86 1011.4
20260905011553 17 0 0.0 1.6 0.00 0.00 0.00 85 1011.5
20260905010044 17 0 0.0 3.2 0.00 0.00 0.00 86 1011.4
20260905004550 17 0 0.0 3.2 0.00 0.00 0.00 87 1011.5
20260905003042 17 0 0.0 4.8 0.00 0.00 0.00 87 1011.4
20260905001544 17 0 0.0 1.6 0.00 0.00 0.00 85 1011.4
20260905000044 17 0 0.0 0.0 0.00 0.00 0.00 84 1011.1
20260904234550 18 0 0.0 3.2 0.00 0.00 0.00 83 1010.9
20260904233054 18 0 0.0 0.0 0.00 0.00 0.00 81 1010.8
20260904231540 19 0 0.0 1.6 0.00 0.00 0.00 79 1010.7
20260904230048 20 0 0.0 0.0 0.00 0.00 0.00 75 1010.6
20260904224547 20 0 0.0 3.2 0.00 0.00 0.00 74 1010.8
20260904223044 20 0 0.0 4.8 0.00 0.00 0.00 76 1010.7
20260904221541 20 0 0.0 1.6 0.00 0.00 0.00 74 1010.5
20260904220043 21 0 0.0 1.6 0.00 0.00 0.00 72 1010.7
20260904214549 21 2 0.0 4.8 0.00 0.00 0.00 70 1010.6
20260904213043 22 9 0.0 1.6 0.00 0.00 0.00 69 1010.7
20260904211544 22 0 0.0 4.8 0.00 0.00 0.00 69 1010.6
20260904210046 22 0 0.0 4.8 0.00 0.00 0.00 68 1010.6
20260904204542 22 0 0.0 0.0 0.00 0.00 0.00 65 1010.6
20260904203047 22 0 0.0 3.2 0.00 0.00 0.00 66 1010.5
20260904201544 23 330 1.6 4.8 0.00 0.00 0.00 61 1010.3
20260904200051 23 0 0.0 4.8 0.00 0.00 0.00 63 1010.3
20260904194543 23 106 1.6 14.5 0.00 0.00 0.00 59 1010.3
20260904193049 23 0 0.0 8.0 0.00 0.00 0.00 63 1010.4
20260904191543 23 140 1.6 9.7 0.00 0.00 0.00 57 1010.5
20260904190041 23 56 1.6 9.7 0.00 0.00 0.00 60 1010.6
20260904184558 23 24 0.0 4.8 0.00 0.00 0.00 63 1010.6
20260904183040 23 309 1.6 4.8 0.00 0.00 0.00 62 1010.6
20260904181543 23 336 0.0 8.0 0.00 0.00 0.00 61 1010.6
20260904180056 24 0 3.2 11.3 0.00 0.00 0.00 58 1010.8
20260904174542 23 336 1.6 12.9 0.00 0.00 0.00 60 1010.6
20260904173051 23 206 0.0 3.2 0.00 0.00 0.00 69 1010.6
20260904171544 22 0 0.0 6.4 0.00 0.00 0.00 68 1010.7
20260904170042 22 54 0.0 4.8 0.00 0.00 0.00 69 1010.9
20260904164542 23 41 1.6 11.3 0.00 0.00 0.00 73 1010.9
20260904163054 22 0 0.0 4.8 0.00 0.00 0.00 73 1010.9
20260904161543 22 268 0.0 4.8 0.00 0.00 0.00 77 1011.0
20260904160043 22 327 1.6 8.0 0.00 0.00 0.00 71 1011.2
20260904154544 22 0 0.0 4.8 0.00 0.00 0.00 72 1011.4
20260904153052 22 166 1.6 4.8 0.00 0.00 0.00 74 1011.4
20260904151542 22 0 0.0 6.4 0.00 0.00 0.00 78 1011.5
20260904150045 21 72 0.0 4.8 0.00 0.00 0.00 78 1011.5
20260904144545 20 0 0.0 3.2 0.00 0.00 0.00 83 1011.5
20260904143041 19 0 0.0 1.6 0.00 0.00 0.00 90 1011.6
20260904141642 18 134 0.0 1.6 0.00 0.00 0.00 92 1011.6
20260904141604 18 195 0.0 3.2 0.00 0.00 0.00 93 1011.6
20260904141124 18 53 0.0 0.0 0.00 0.00 0.00 94 1011.6
20260904140045 17 0 0.0 6.4 0.00 0.00 0.00 96 1011.6
20260904134545 17 0 0.0 3.2 0.00 0.00 0.00 98 1011.6
20260904133044 16 0 0.0 0.0 0.00 0.00 0.00 98 1011.7
20260904132835 17 53 0.0 0.0 0.00 0.00 0.00 98 1011.6
20260904132336 16 53 0.0 0.0 0.00 0.00 0.00 98 1011.6
20260904131830 16 53 0.0 0.0 0.00 0.00 0.00 98 1011.6
20260904131603 16 0 0.0 0.0 0.00 0.00 0.00 97 1011.6
20260904131323 16 53 0.0 0.0 0.00 0.00 0.00 98 1011.7
20260904130813 16 53 0.0 0.0 0.00 0.00 0.00 98 1011.7
20260904130257 16 53 0.0 0.0 0.00 0.00 0.00 97 1011.7
20260904130042 16 0 0.0 0.0 0.00 0.00 0.00 97 1011.6
20260904125756 16 53 0.0 0.0 0.00 0.00 0.00 98 1011.8
20260904124613 16 53 0.0 0.0 0.00 0.00 0.00 97 1011.7
20260904124544 15 0 0.0 0.0 0.00 0.00 0.00 97 1011.8
20260904124054 15 53 0.0 0.0 0.00 0.00 0.00 97 1011.8
20260904123535 15 53 0.0 0.0 0.00 0.00 0.00 97 1011.8
20260904123059 15 0 0.0 0.0 0.00 0.00 0.00 97 1011.9
20260904123036 15 53 0.0 0.0 0.00 0.00 0.00 97 1011.9
20260904122544 15 53 0.0 0.0 0.00 0.00 0.00 97 1011.8
20260904121541 15 0 0.0 0.0 0.00 0.00 0.00 97 1011.8
20260904120047 14 0 0.0 0.0 0.00 0.00 0.00 97 1011.8
20260904114545 14 0 0.0 0.0 0.00 0.00 0.00 97 1011.8
20260904113044 14 0 0.0 0.0 0.00 0.00 0.00 97 1011.7
20260904111552 13 0 0.0 0.0 0.00 0.00 0.00 97 1011.4
20260904110046 13 0 0.0 0.0 0.00 0.00 0.00 97 1011.1
20260904104542 13 0 0.0 0.0 0.00 0.00 0.00 97 1011.2
20260904103044 13 0 0.0 0.0 0.00 0.00 0.00 97 1011.1
20260904101551 13 0 0.0 0.0 0.00 0.00 0.00 97 1011.1
20260904100041 13 0 0.0 0.0 0.00 0.00 0.00 97 1011.0
20260904094542 13 0 0.0 0.0 0.00 0.00 0.00 96 1010.8